RH
88 98 94 95 95 95 95 93 92 91 91 90 90 90 92 92 92 92 93 94 92 88 86 85 87 85 82 78 82 84 86 86 86 85 88 87 84 85 87 89 88 82 86
81 96 95 95 95 95 94 94 93 92 91 91 90 91 91 91 91 92 94 94 92 89 84 85 85 83 83 82 87 87 88 88 88 87 88 86 85 84 84 89 88 86 86
85 94 94 95 95 95 94 94 94 92 91 92 90 90 90 91 91 92 93 94 93 90 85 84 83 83 86 87 88 89 90 90 90 88 90 95 91 84 84 89 91 90 87
86 92 94 95 95 95 95 95 95 93 91 92 90 90 90 91 92 92 94 94 92 90 86 84 83 84 91 90 88 89 91 91 91 89 94 94 85 85 84 87 88 87 88
85 89 90 95 95 94 94 94 95 95 94 93 92 90 90 90 91 92 94 94 93 91 85 80 81 91 93 93 90 88 90 92 92 90 94 94 93 85 83 86 87 90 90
85 85 94 97 95 93 92 93 94 95 95 95 94 91 90 90 90 92 93 94 92 90 86 84 89 92 94 94 91 89 90 91 94 95 94 91 93 84 80 84 88 91 92
86 87 94 97 96 95 93 92 94 95 95 95 95 94 92 91 91 91 92 93 93 92 90 90 92 94 94 94 93 90 92 93 95 96 95 95 94 85 79 83 88 90 90
89 91 93 94 95 96 96 95 95 95 96 95 96 95 94 93 94 93 92 92 94 95 95 94 94 94 95 95 94 93 94 94 92 96 94 89 82 84 79 82 88 90 90
91 94 96 96 95 95 96 97 97 97 96 96 96 97 96 95 95 93 93 92 93 95 94 95 94 94 95 94 95 95 95 95 96 98 95 92 78 77 79 84 84 91 91
94 95 97 98 98 98 97 97 97 98 97 97 97 98 98 97 95 94 94 94 93 94 95 94 94 95 96 96 95 96 96 95 96 96 98 97 84 73 73 85 86 90 92
95 96 97 98 98 98 97 96 97 97 98 98 98 98 100 98 97 96 95 95 94 95 96 96 95 96 96 94 94 96 97 99 98 98 99 93 89 78 77 84 89 89 91
95 97 98 98 98 98 95 97 98 98 99 98 97 99 98 91 97 96 97 96 96 96 96 97 96 96 97 98 98 97 99 98 99 98 98 93 90 83 78 86 88 90 90
91 96 98 98 98 98 98 99 100 100 100 97 93 88 92 87 92 94 96 99 99 97 99 98 99 99 99 99 99 99 99 99 99 99 93 94 90 85 79 85 87 89 89
55 79 98 98 99 99 99 100 99 99 100 100 96 95 95 95 95 89 90 90 96 99 98 98 99 98 98 98 98 98 98 99 99 99 97 93 93 88 80 79 83 86 88
79 99 95 81 90 97 96 97 99 99 99 98 99 98 92 94 93 87 87 88 93 99 98 99 97 98 99 99 98 98 98 98 98 99 99 94 95 91 84 77 79 80 82
70 71 73 72 72 70 86 89 94 96 96 98 98 98 98 98 98 98 91 90 92 99 98 98 96 95 96 98 98 98 97 98 97 97 98 96 93 93 90 84 80 78 80
68 68 72 75 73 73 75 80 92 94 94 95 95 92 97 98 97 96 97 98 98 98 98 98 99 99 98 97 97 98 98 97 97 97 97 98 95 92 90 90 84 82 80
72 73 72 66 77 78 81 82 78 88 95 94 95 93 91 91 91 98 96 95 94 98 98 98 98 98 96 95 93 98 98 97 97 97 96 97 97 92 95 92 89 88 85
78 73 75 76 80 82 81 82 84 86 86 92 91 92 86 88 88 92 93 97 96 97 98 97 98 97 97 95 94 95 98 98 96 95 96 95 96 92 94 92 90 90 90
77 74 74 74 78 79 83 84 85 81 80 85 82 81 81 91 87 93 94 95 98 99 96 95 95 96 94 96 96 96 98 98 96 96 95 94 94 94 94 94 95 96 94
74 72 74 76 78 77 82 90 94 89 88 80 82 77 78 86 86 83 86 90 91 96 97 98 95 90 94 98 100 100 99 99 99 98 97 97 96 94 95 94 96 97 98
79 76 75 77 78 79 80 88 88 91 92 84 82 78 80 79 85 83 91 90 92 93 89 98 98 97 98 98 89 97 98 97 100 99 99 99 98 97 95 95 93 96 97
78 76 74 76 76 78 79 80 84 83 84 85 81 82 79 78 81 86 89 93 95 95 94 93 97 97 96 99 99 94 98 99 96 99 98 97 99 98 97 96 96 96 97
73 70 71 72 75 72 74 82 93 97 91 89 86 81 78 78 82 85 88 92 95 94 95 94 93 97 97 98 98 98 95 96 97 99 99 100 99 99 98 98 97 98 97
76 74 76 73 75 78 80 81 82 82 79 77 77 80 80 78 78 81 84 83 85 89 92 95 92 89 96 94 96 100 98 99 97 96 97 97 98 94 95 97 97 97 94
72 69 76 75 75 75 77 79 82 79 81 82 81 84 81 80 82 84 83 87 89 91 92 92 92 94 92 97 93 90 91 93 97 97 92 81 81 86 94 95 98 98 98
Wind_Speed
3 6 9 9 7 6 6 9 13 14 15 16 16 17 18 19 19 19 17 16 16 16 16 17 14 14 12 12 10 8 8 7 7 7 9 12 14 15 15 13 14 12 16
9 8 10 10 9 8 8 8 10 13 13 13 14 15 16 17 18 18 17 16 15 15 16 15 14 13 12 11 9 8 7 7 7 7 9 12 14 15 14 12 11 12 15
8 9 9 11 11 9 9 8 8 12 14 13 14 14 15 16 17 17 16 16 16 15 16 15 14 13 11 10 9 8 7 7 6 7 7 4 6 14 14 11 10 12 15
8 8 10 12 13 12 10 10 9 10 12 13 13 13 14 15 16 17 16 16 16 15 15 15 14 12 10 10 9 8 8 7 7 7 4 4 7 13 14 14 14 13 14
7 7 7 13 13 13 12 12 11 10 10 11 13 14 13 15 16 16 15 15 15 15 15 14 13 11 10 10 9 9 8 9 8 6 4 5 4 8 13 15 14 13 12
7 7 9 10 11 14 13 11 11 12 11 11 11 14 14 14 15 15 14 14 15 15 14 13 12 11 10 9 9 9 8 8 7 4 4 5 5 7 12 13 13 14 13
6 6 10 12 10 10 12 13 12 11 11 12 12 12 13 14 13 14 14 13 13 14 14 13 11 11 10 10 9 9 7 7 5 4 4 5 6 10 13 13 12 12 14
8 6 7 12 12 12 11 11 11 11 11 12 12 12 13 13 13 13 13 13 12 11 11 11 11 10 10 10 10 8 7 6 5 5 5 4 7 9 12 15 13 11 11
5 6 6 7 9 10 10 10 11 12 12 12 12 11 11 10 11 12 13 13 12 10 10 10 10 10 10 10 9 8 7 7 5 3 5 4 8 10 11 11 14 12 12
5 5 5 5 5 6 6 10 10 11 12 12 12 12 11 10 11 11 11 12 12 11 10 11 10 10 10 10 10 9 9 8 5 5 4 4 9 12 13 11 14 14 14
2 4 4 5 5 5 4 6 8 10 10 10 9 10 8 6 7 8 9 10 12 12 11 11 10 10 9 10 10 10 9 3 4 3 3 8 10 14 12 12 13 14 15
6 7 7 7 5 4 3 4 4 3 3 4 5 5 6 9 6 6 7 10 11 11 11 9 9 10 8 4 4 7 3 4 4 4 3 10 12 15 13 15 12 14 16
8 4 8 7 7 6 3 2 2 2 2 3 6 8 7 6 5 7 5 4 4 8 4 6 5 4 6 5 4 4 5 5 3 3 5 10 13 14 16 14 13 15 15
8 7 4 5 5 6 4 3 2 3 4 3 4 4 4 4 5 7 6 7 7 4 7 6 5 6 7 6 6 6 6 5 4 3 4 11 13 15 17 15 16 16 15
3 5 7 7 5 3 4 2 2 2 1 1 3 5 6 6 6 8 7 7 7 6 6 6 7 7 7 7 6 7 7 7 7 5 4 10 12 14 15 17 14 14 15
8 9 7 9 9 8 6 6 4 4 3 1 1 3 5 5 5 5 7 8 7 5 6 7 9 9 9 8 9 9 9 8 8 8 6 6 13 13 13 15 16 15 16
7 8 9 9 8 10 7 6 5 4 5 5 4 7 6 6 7 6 5 6 7 7 9 7 6 6 6 7 10 9 9 10 8 8 7 6 7 14 13 13 14 15 17
7 9 8 8 9 9 7 5 4 4 4 4 4 4 6 9 11 6 7 7 8 7 7 7 7 8 8 8 9 8 9 8 10 9 8 7 6 6 10 14 13 12 15
6 8 9 8 9 7 6 4 5 6 5 4 3 3 5 5 7 8 9 7 8 7 6 3 6 8 7 8 9 7 8 8 9 8 11 10 8 8 6 11 13 13 13
8 8 10 9 8 6 4 3 4 5 4 4 4 4 5 4 5 4 5 8 8 5 6 12 12 8 4 9 8 8 7 8 8 8 9 7 8 8 7 7 6 6 12
9 10 10 11 10 8 5 3 2 4 3 5 4 8 8 7 8 7 5 5 7 8 6 7 7 10 9 10 4 1 3 5 5 6 6 7 7 7 7 6 5 4 5
8 9 10 10 10 7 5 3 4 2 2 2 4 7 7 10 9 8 6 6 5 6 9 6 7 5 5 7 8 3 5 4 3 5 4 6 9 6 7 7 8 8 6
11 11 11 10 9 10 9 6 4 3 3 3 7 6 8 10 10 9 8 6 6 4 5 7 7 11 8 3 8 5 2 4 4 4 9 6 7 6 7 8 8 8 7
11 10 11 11 12 12 12 8 7 4 4 4 7 8 9 9 9 9 9 7 7 6 7 7 7 8 8 7 1 1 2 6 4 2 3 6 9 8 10 7 9 9 9
13 9 9 12 14 13 11 10 6 7 6 6 7 11 10 9 11 10 11 12 11 8 8 8 10 11 10 10 5 3 2 2 3 4 4 4 6 11 11 10 8 8 10
11 9 11 11 13 12 12 12 10 11 10 9 10 8 8 8 9 10 11 10 11 10 9 9 11 13 13 11 9 9 8 7 6 4 4 7 11 8 9 9 9 9 8
Wind_Direction
166 142 163 158 159 131 113 115 118 119 122 125 127 126 128 130 133 133 136 140 146 150 148 145 142 133 117 106 100 95 98 108 111 114 119 128 135 137 132 129 124 129 130
136 152 163 157 149 132 121 112 117 120 120 123 125 128 129 131 132 135 139 141 144 148 151 150 148 143 130 118 111 109 113 112 116 124 122 141 143 138 138 130 135 137 137
146 155 165 163 149 140 134 127 128 133 131 133 135 138 137 136 138 139 142 144 147 150 154 156 155 151 140 127 125 125 125 123 117 120 126 130 135 146 147 141 140 136 139
154 162 166 166 154 150 148 144 141 142 141 143 143 143 145 144 146 148 148 149 151 154 159 159 157 155 143 138 143 142 146 143 147 145 125 127 154 159 155 152 145 146 143
151 164 170 166 161 159 160 160 155 150 149 150 152 152 154 154 154 153 152 153 155 155 161 165 162 152 148 150 156 158 161 160 164 141 141 158 165 177 166 165 153 151 150
160 165 161 170 169 164 166 167 167 162 162 165 165 162 162 162 161 158 159 160 160 160 162 166 164 159 159 160 166 168 172 166 164 163 181 186 179 199 173 176 169 160 152
168 168 164 164 168 174 171 171 176 176 173 173 179 174 170 168 168 165 165 168 168 167 167 168 170 166 162 164 171 174 181 166 150 181 200 186 182 196 189 183 172 170 161
160 160 163 172 174 177 175 177 178 180 184 185 186 183 181 178 174 174 173 174 176 173 173 173 170 170 171 171 173 181 188 173 161 190 210 204 206 203 197 185 177 174 167
157 152 158 174 180 178 183 184 184 185 188 191 190 190 191 186 183 183 184 182 183 183 179 177 176 176 177 177 175 182 184 191 176 180 213 211 223 207 194 185 179 178 174
164 158 166 168 174 183 185 188 190 195 194 192 192 192 191 194 194 195 191 191 186 190 188 186 183 183 180 182 181 181 183 192 193 189 205 227 205 201 203 204 194 178 180
167 177 178 177 188 180 188 196 200 202 200 197 195 197 192 202 204 205 200 197 191 193 194 192 188 187 185 187 187 176 172 200 202 201 198 222 226 213 218 216 203 188 187
204 203 184 177 174 168 182 192 189 204 199 209 204 196 201 211 207 204 208 207 203 198 197 197 193 192 179 193 193 176 171 187 209 215 215 230 231 222 219 218 210 197 192
214 198 187 170 162 168 174 183 198 169 161 202 218 214 216 213 213 213 213 211 202 204 190 201 198 198 189 189 194 183 178 184 208 214 222 230 242 233 215 204 220 206 201
204 225 139 131 151 160 149 182 217 209 173 185 206 215 213 219 217 223 218 215 207 189 193 186 195 198 196 194 188 195 190 187 203 219 223 229 228 223 228 218 220 207 204
162 98 100 103 105 113 96 83 182 209 243 259 202 204 214 221 228 229 226 220 213 188 193 193 194 194 199 198 196 196 207 202 201 210 209 229 222 216 221 233 235 227 219
120 105 102 90 86 85 76 73 61 41 27 334 257 245 244 244 238 227 232 232 227 196 198 196 200 200 203 201 206 202 208 210 206 209 209 222 218 220 221 232 230 229 229
108 111 93 80 76 77 74 63 58 44 42 45 15 357 312 265 247 233 232 227 216 202 194 196 194 189 200 205 215 209 208 210 210 210 210 207 220 222 221 228 226 219 222
103 83 70 77 69 67 62 58 53 45 56 51 15 359 0 336 333 281 240 232 229 215 204 202 211 200 205 209 220 216 214 212 210 203 208 205 203 204 217 213 205 209 221
63 87 77 66 66 68 58 73 70 63 44 35 45 24 355 328 317 318 317 266 248 230 210 224 235 216 195 215 215 215 216 214 214 209 211 209 205 205 203 206 201 205 216
28 54 72 63 49 48 66 64 53 60 26 38 14 20 4 351 358 331 305 312 292 247 235 204 220 223 192 232 223 212 212 218 213 212 216 214 208 206 199 202 199 204 211
22 33 46 55 37 32 16 17 41 46 348 10 14 2 353 0 351 343 338 332 330 314 256 233 239 238 212 210 165 111 255 251 237 236 220 212 222 220 204 200 200 189 205
31 29 37 57 54 50 47 25 44 355 320 324 15 354 359 346 339 331 331 321 313 314 320 276 224 239 236 195 228 213 225 218 195 210 241 240 218 198 223 215 211 192 188
25 26 28 35 50 45 44 34 355 23 339 350 3 352 347 334 331 324 318 309 301 282 277 294 270 228 243 243 208 196 138 216 203 147 223 262 242 208 212 214 212 203 185
22 16 22 21 26 35 31 42 41 50 7 346 324 322 333 329 324 324 315 306 296 293 283 278 278 252 228 225 135 204 162 150 178 166 202 175 238 220 210 216 215 202 185
32 358 19 19 29 25 20 28 34 28 1 338 336 329 331 333 324 322 322 320 314 301 289 271 269 264 237 235 182 147 187 204 232 143 185 200 215 228 215 192 208 212 196
47 357 21 15 26 19 21 21 15 20 1 347 346 333 332 328 323 320 319 314 301 296 282 287 279 268 247 222 207 205 178 177 184 189 208 207 220 233 221 217 195 201 203